Wind_Speed
81 81 80 81 84 86 88 88 85 83 81 79 77 76 77 80 82 81 79 79 80 81 82 83 85 88 92 93 93 91 91 91 91 92 92 90 89 88 87 86 85 85
82 82 83 83 85 88 89 89 86 83 80 80 82 82 80 81 83 83 82 82 83 82 82 82 82 85 89 92 94 95 95 94 93 92 92 91 91 90 90 88 88 87
91 88 88 88 89 91 91 91 91 88 84 81 82 84 85 85 85 85 84 85 85 85 84 84 84 84 85 87 90 92 95 96 95 95 93 92 92 92 92 91 91 91
99 96 95 95 95 95 96 97 98 96 93 89 86 85 86 87 86 86 86 86 87 87 87 86 85 86 86 86 86 87 89 91 93 94 95 95 95 94 94 93 92 92
102 101 99 98 96 96 98 101 101 101 100 98 95 93 92 91 88 87 87 88 89 90 90 88 86 86 86 87 87 87 87 88 89 90 91 93 94 94 94 94 94 93
100 100 99 97 93 92 96 99 100 101 102 103 102 100 99 98 95 93 92 92 93 93 92 92 91 89 88 87 88 89 89 88 88 89 89 89 90 91 92 92 92 92
101 101 100 99 95 92 93 95 95 97 100 103 105 104 103 103 101 100 100 98 97 97 95 94 94 95 94 92 91 91 91 91 91 91 90 90 90 90 90 90 90 90
95 100 103 105 105 103 102 101 98 98 100 102 104 105 107 107 106 106 105 104 103 103 102 100 98 97 97 97 96 95 94 94 94 93 93 92 92 91 91 91 91 91
68 79 88 96 102 106 109 110 110 109 109 110 111 112 114 115 114 114 112 110 108 109 110 110 107 103 101 100 99 99 99 98 97 96 96 95 94 93 92 91 91 91
46 55 65 75 84 92 99 105 109 112 115 116 118 120 120 120 120 119 119 117 115 114 114 115 115 114 112 108 106 104 104 103 102 101 99 97 96 95 94 92 90 89
39 44 51 59 67 75 84 91 98 103 107 111 114 117 119 120 121 121 122 122 122 122 122 122 122 123 123 121 118 115 112 109 107 106 104 102 100 99 97 94 91 88
38 41 45 50 55 62 69 76 84 91 96 101 105 109 113 117 119 121 122 123 124 125 126 127 129 130 129 128 127 125 122 118 114 112 110 109 106 102 100 97 93 90
41 42 44 47 50 54 58 63 69 75 81 87 92 97 102 107 111 114 116 118 120 121 122 124 126 129 131 133 132 129 125 121 118 116 114 113 111 108 104 100 97 93
44 45 46 48 51 53 56 59 62 65 69 73 78 82 87 92 97 102 106 108 110 110 111 112 115 118 122 128 133 134 130 123 119 116 116 115 113 112 110 106 102 98
46 47 49 51 53 55 58 60 62 65 67 70 73 76 79 83 87 92 97 99 100 100 100 101 103 106 109 115 123 130 134 132 125 119 116 116 113 112 112 111 108 104
47 49 50 52 55 57 60 62 64 66 69 72 74 77 80 83 87 91 95 97 98 98 99 100 101 102 105 106 110 117 125 132 133 128 121 116 114 111 110 111 110 107
51 51 52 53 55 57 60 62 64 67 70 72 75 78 80 84 87 91 94 96 98 98 99 101 102 104 107 108 108 109 112 120 130 134 130 120 113 110 107 108 110 107
54 54 55 55 56 58 60 62 64 66 69 71 73 76 78 81 84 87 88 90 92 94 96 97 100 103 107 110 111 111 109 110 117 129 135 131 120 111 107 106 109 109
57 57 58 59 59 60 62 63 65 67 69 71 72 74 75 77 79 80 81 82 85 87 89 92 96 100 103 107 109 110 110 110 110 117 129 136 132 122 113 107 107 108
58 59 60 61 62 63 63 65 66 68 70 71 72 73 73 74 74 74 74 75 78 81 83 86 90 95 97 101 104 105 107 110 111 112 118 129 135 131 121 111 105 104
58 59 60 61 62 63 64 65 67 68 71 72 73 73 72 71 69 68 69 70 72 75 77 80 84 87 90 93 95 97 99 105 111 111 112 119 129 132 126 115 107 102
58 58 59 60 62 63 64 65 67 68 71 72 73 72 71 68 65 64 64 65 67 70 71 73 76 79 81 84 86 87 91 98 106 109 109 112 122 130 128 119 109 103
56 56 57 58 60 61 62 63 65 67 69 72 72 72 70 67 63 62 62 63 65 66 67 67 69 70 72 75 78 79 83 90 98 104 106 108 115 126 129 122 111 104
53 53 53 55 56 58 59 61 62 64 67 69 71 70 69 66 63 61 61 61 62 62 61 60 61 62 65 68 71 73 77 84 91 98 104 106 110 121 129 124 113 105
49 49 50 52 53 55 57 58 59 61 63 66 69 68 67 65 62 60 60 59 58 56 54 54 55 57 59 62 65 69 73 78 86 94 101 103 105 116 127 127 117 107
45 45 47 48 50 51 53 55 56 58 60 63 66 67 65 63 60 59 58 57 54 50 48 49 50 52 55 58 61 64 68 74 82 90 96 100 103 111 122 127 123 113
Wind_Direction
220 220 217 215 216 218 220 222 222 222 224 226 227 228 228 229 229 231 234 237 240 244 246 246 245 245 246 247 248 249 250 251 251 251 250 249 249 250 250 251 251 252
217 218 217 216 217 219 221 223 223 223 225 227 227 228 229 231 233 234 237 237 238 241 245 248 248 248 248 248 249 250 251 252 253 253 253 252 251 250 250 251 251 252
217 218 218 218 220 222 223 225 225 225 226 228 230 231 232 235 238 241 242 240 238 239 242 246 248 249 250 249 249 249 250 251 252 254 254 254 253 253 252 252 252 253
218 219 221 222 224 226 226 227 228 228 228 229 231 232 234 237 241 244 244 242 239 239 242 244 246 248 250 251 251 251 251 251 251 253 254 255 256 256 257 256 256 256
220 222 224 225 227 229 230 230 231 232 231 230 232 233 235 237 240 242 243 243 242 242 241 242 244 246 249 251 252 252 252 252 252 253 253 254 256 257 258 259 259 259
224 225 225 225 226 229 231 232 233 233 233 233 234 235 237 238 240 242 243 244 244 243 241 241 241 243 246 248 251 252 253 253 254 254 254 254 254 255 256 257 258 259
226 227 228 228 228 229 230 233 235 234 234 235 237 238 239 240 242 244 245 246 245 243 242 242 242 243 244 246 248 251 253 253 253 254 254 254 254 254 255 255 256 257
227 229 231 233 234 234 234 235 236 237 237 238 239 241 242 244 246 246 247 247 247 246 246 246 245 245 246 247 248 249 251 253 254 254 254 254 254 254 254 254 255 255
229 230 231 233 235 237 238 239 240 240 241 242 243 244 246 248 248 248 247 248 249 250 251 251 250 248 247 248 249 249 250 251 253 254 254 254 255 255 254 254 254 255
235 234 234 234 235 236 238 239 241 242 243 245 246 247 249 249 249 249 249 249 250 251 253 254 253 252 250 249 249 250 250 250 251 252 253 254 255 255 255 254 254 254
242 240 238 238 238 238 239 240 241 242 243 245 246 247 248 248 248 249 249 250 251 252 253 254 254 254 253 251 250 250 250 250 250 250 251 252 254 254 255 255 254 253
245 244 243 242 242 242 242 242 243 244 245 246 247 247 248 248 249 249 250 250 251 251 251 252 252 252 253 252 251 250 248 248 249 250 250 251 251 253 254 254 254 253
250 248 247 246 246 245 245 245 245 246 246 247 247 248 248 248 249 249 250 250 251 251 251 250 250 249 249 249 249 249 247 247 247 248 249 250 250 250 252 253 253 252
252 252 252 251 251 250 249 249 249 249 249 249 250 250 250 250 251 251 252 253 253 254 255 255 255 254 252 249 248 247 246 245 245 245 247 248 249 249 250 251 252 252
251 251 251 252 252 253 253 253 253 252 252 252 252 252 253 253 254 254 256 257 259 260 261 261 261 261 259 256 252 249 246 244 242 243 244 245 247 248 249 250 251 251
253 252 252 252 252 253 254 254 254 255 254 254 254 254 254 254 255 256 258 260 261 263 263 264 263 263 262 260 257 253 250 246 243 240 240 242 243 245 247 249 249 250
255 255 256 256 256 256 256 257 257 257 257 257 257 257 257 257 257 258 259 261 262 263 263 263 263 263 262 261 259 256 253 249 245 240 238 237 239 241 243 246 248 248
256 257 258 259 259 260 261 261 262 262 262 262 262 262 262 262 262 263 264 264 265 264 263 263 262 261 261 260 259 257 254 250 246 242 238 235 235 237 240 244 247 247
257 258 259 260 262 263 264 266 266 267 268 268 268 268 269 269 269 269 269 268 267 266 264 263 262 261 259 257 255 254 252 250 247 244 240 236 234 235 237 240 243 246
260 260 261 262 264 265 267 269 270 272 273 273 274 275 275 275 275 274 273 272 269 267 265 264 262 260 257 255 253 250 249 247 245 243 241 237 233 232 234 235 238 242
264 264 265 265 266 268 270 272 273 275 277 278 279 280 280 280 279 278 277 275 272 270 269 267 263 259 255 253 251 248 245 244 243 241 240 237 233 230 230 232 234 238
267 268 268 269 270 271 273 274 276 278 280 281 283 284 285 285 284 283 282 280 278 276 273 268 263 258 254 251 249 246 242 240 240 239 238 236 232 228 227 229 231 235
270 271 271 272 273 274 276 277 279 281 282 284 286 288 289 290 290 290 289 287 285 281 275 269 264 259 255 250 247 243 239 237 237 236 236 235 231 227 225 225 228 232
271 272 272 274 276 278 279 280 281 282 284 286 288 290 292 294 295 295 295 293 290 284 276 271 266 261 255 250 245 240 236 235 234 233 233 233 230 226 223 222 224 229
272 273 274 276 278 280 281 282 283 284 286 288 290 292 294 296 298 299 299 298 293 285 278 273 268 261 255 249 243 238 234 232 231 231 231 231 229 225 222 221 221 225
273 274 276 279 281 282 283 285 286 287 289 291 292 294 296 299 301 303 304 302 296 288 281 274 268 261 255 248 242 237 232 229 229 229 229 230 228 224 221 220 220 222
Height
10564 10565 10568 10571 10572 10573 10573 10575 10577 10579 10581 10583 10585 10587 10587 10589 10592 10595 10598 10601 10602 10603 10604 10607 10611 10613 10614 10616 10619 10622 10623 10624 10627 10631 10635 10640 10643 10644 10646 10648 10650 10652
10563 10564 10566 10569 10570 10571 10571 10573 10575 10577 10579 10580 10580 10582 10583 10584 10588 10591 10593 10596 10598 10599 10599 10601 10603 10605 10607 10610 10612 10615 10617 10619 10621 10623 10627 10632 10634 10637 10639 10640 10642 10644
10561 10562 10564 10566 10566 10568 10570 10571 10573 10575 10577 10577 10577 10578 10579 10580 10582 10585 10588 10591 10593 10594 10595 10596 10597 10598 10599 10602 10604 10607 10610 10613 10615 10616 10618 10622 10625 10628 10631 10633 10635 10636
10558 10559 10561 10562 10563 10564 10566 10567 10569 10571 10573 10573 10572 10573 10574 10575 10577 10579 10581 10584 10587 10589 10590 10590 10591 10592 10592 10594 10596 10598 10602 10605 10608 10609 10611 10614 10617 10620 10623 10625 10627 10629
10554 10556 10557 10558 10559 10561 10562 10563 10564 10566 10567 10567 10567 10567 10569 10570 10572 10572 10574 10577 10579 10581 10583 10584 10585 10585 10586 10587 10588 10590 10593 10595 10599 10602 10604 10607 10610 10613 10615 10617 10620 10621
10550 10551 10551 10553 10555 10556 10557 10558 10559 10560 10561 10561 10561 10562 10563 10564 10565 10565 10567 10569 10571 10573 10575 10577 10578 10579 10579 10580 10581 10582 10584 10587 10590 10592 10595 10598 10601 10604 10607 10609 10612 10614
10547 10547 10547 10548 10549 10550 10551 10551 10552 10554 10554 10554 10555 10556 10557 10557 10558 10558 10558 10560 10563 10565 10567 10569 10570 10571 10571 10573 10574 10575 10576 10578 10581 10583 10585 10589 10592 10595 10598 10600 10603 10605
10542 10543 10544 10544 10545 10546 10546 10545 10545 10546 10547 10548 10549 10548 10548 10549 10551 10551 10550 10551 10553 10556 10558 10560 10563 10564 10564 10566 10568 10569 10569 10569 10572 10573 10575 10579 10582 10585 10588 10591 10593 10596
10533 10535 10536 10537 10538 10539 10540 10540 10540 10540 10541 10541 10541 10540 10540 10541 10542 10542 10542 10543 10545 10547 10548 10550 10554 10556 10557 10557 10559 10560 10561 10562 10562 10563 10565 10568 10571 10574 10577 10580 10584 10587
10523 10524 10526 10527 10528 10529 10530 10531 10532 10533 10533 10534 10532 10532 10532 10532 10532 10533 10534 10536 10538 10539 10539 10540 10542 10545 10548 10549 10549 10550 10552 10553 10553 10554 10556 10558 10560 10562 10565 10569 10574 10578
10515 10515 10516 10517 10517 10518 10519 10520 10521 10521 10522 10522 10521 10521 10521 10521 10521 10523 10524 10526 10528 10530 10530 10529 10530 10530 10533 10536 10539 10539 10540 10541 10542 10544 10547 10549 10550 10551 10554 10558 10564 10568
10509 10509 10509 10510 10510 10510 10510 10511 10511 10511 10510 10510 10510 10510 10510 10510 10510 10511 10512 10513 10514 10514 10514 10515 10515 10515 10517 10520 10522 10524 10526 10528 10530 10533 10535 10538 10540 10542 10544 10547 10552 10557
10502 10502 10503 10503 10504 10504 10503 10503 10503 10502 10502 10500 10500 10500 10499 10499 10498 10497 10498 10497 10496 10495 10495 10495 10495 10497 10500 10503 10504 10507 10511 10515 10518 10521 10523 10527 10530 10533 10535 10537 10541 10546
10494 10495 10496 10496 10496 10496 10496 10496 10495 10494 10493 10492 10491 10491 10489 10488 10487 10485 10483 10481 10479 10478 10478 10478 10478 10479 10483 10486 10487 10490 10495 10500 10504 10508 10511 10515 10519 10522 10525 10527 10530 10536
10488 10488 10489 10488 10488 10488 10488 10488 10488 10487 10486 10485 10483 10482 10480 10479 10476 10473 10470 10468 10466 10465 10464 10464 10465 10466 10468 10471 10472 10474 10478 10484 10491 10496 10499 10503 10507 10511 10514 10517 10520 10525
10481 10481 10481 10481 10481 10481 10480 10480 10479 10479 10478 10476 10475 10473 10472 10469 10466 10462 10458 10455 10453 10452 10450 10449 10450 10450 10450 10452 10455 10456 10460 10466 10473 10480 10486 10490 10494 10500 10504 10506 10509 10515
10472 10472 10472 10473 10473 10472 10472 10471 10470 10470 10468 10467 10466 10464 10462 10459 10455 10451 10448 10444 10441 10439 10438 10436 10435 10434 10431 10431 10433 10436 10440 10447 10453 10460 10469 10476 10482 10488 10495 10496 10497 10502
10464 10464 10463 10463 10463 10462 10462 10461 10460 10459 10457 10456 10454 10452 10450 10447 10443 10440 10436 10433 10429 10426 10425 10422 10419 10416 10413 10411 10412 10414 10419 10427 10434 10439 10449 10460 10469 10476 10484 10488 10487 10490
10455 10455 10454 10454 10453 10452 10451 10450 10448 10447 10444 10442 10441 10438 10436 10433 10429 10426 10422 10418 10414 10410 10408 10405 10400 10395 10392 10390 10391 10394 10398 10406 10415 10421 10428 10440 10454 10464 10472 10479 10480 10480
10445 10445 10444 10444 10443 10441 10440 10438 10436 10434 10431 10428 10426 10423 10421 10417 10414 10410 10405 10400 10396 10391 10388 10385 10378 10373 10370 10369 10370 10375 10380 10386 10395 10403 10410 10420 10436 10449 10459 10469 10473 10472
10435 10435 10434 10433 10432 10430 10429 10426 10424 10421 10417 10414 10411 10407 10405 10401 10397 10393 10387 10381 10376 10370 10367 10363 10355 10351 10350 10349 10350 10356 10363 10368 10375 10384 10393 10403 10417 10433 10446 10457 10464 10465
10426 10425 10424 10422 10421 10419 10417 10415 10412 10408 10404 10400 10396 10392 10389 10385 10380 10375 10369 10363 10357 10351 10346 10341 10335 10332 10331 10332 10334 10340 10347 10352 10357 10366 10378 10388 10401 10418 10433 10446 10455 10458
10416 10415 10414 10412 10410 10408 10406 10403 10400 10397 10392 10387 10382 10378 10374 10369 10364 10359 10353 10347 10340 10334 10328 10323 10318 10316 10316 10317 10320 10326 10332 10338 10344 10353 10363 10374 10388 10404 10419 10433 10445 10450
10407 10406 10404 10402 10400 10398 10395 10393 10390 10386 10381 10376 10371 10366 10361 10356 10351 10345 10339 10333 10326 10319 10313 10308 10305 10302 10302 10304 10308 10314 10320 10326 10333 10341 10349 10360 10374 10390 10405 10420 10435 10442
10398 10397 10395 10393 10390 10388 10385 10383 10380 10375 10371 10366 10360 10355 10350 10344 10338 10332 10326 10320 10313 10305 10300 10296 10293 10291 10291 10293 10297 10303 10309 10316 10323 10330 10338 10349 10363 10378 10393 10409 10424 10433
10389 10388 10386 10383 10381 10379 10376 10373 10370 10365 10361 10355 10349 10345 10339 10333 10327 10321 10315 10309 10301 10294 10289 10285 10283 10281 10281 10283 10288 10294 10300 10308 10314 10321 10330 10340 10352 10367 10383 10397 10412 10424